Location: Castelnau-Barbarens
(43.5760°N, 0.7244°E)
Time: 17:09:47
(UTC+02:00)

ISS - Visible Passes

Search period start: 13 July 2025 00:00
Search period end: 23 July 2025 00:00
Orbit: 413 x 417 km, 51.6° (Epoch: 13 July)

Date Brightness Start Highest point End Pass type
(mag) Time Alt. Az. Time Alt. Az. Time Alt. Az.
13 Jul -1.0 00:23:00 10° NW 00:25:34 20° N 00:28:08 10° NE visible
13 Jul -2.0 01:59:57 10° NW 02:02:59 31° NNE 02:03:21 30° NNE visible
13 Jul -1.1 23:33:51 10° WNW 23:36:29 21° N 23:39:07 10° NE visible
14 Jul -1.5 01:11:07 10° NW 01:13:58 25° NNE 01:15:19 19° NE visible
14 Jul -1.1 02:47:39 10° WNW 02:48:08 13° WNW 02:48:08 13° WNW visible
14 Jul -1.3 22:44:38 10° WNW 22:47:24 23° NNW 22:50:10 10° NE visible
15 Jul -1.3 00:22:13 10° NW 00:24:54 22° N 00:27:33 10° ENE visible
15 Jul -1.7 01:58:48 10° NW 02:00:22 25° NW 02:00:22 25° NW visible
15 Jul -1.2 23:33:13 10° NW 23:35:47 20° N 23:38:22 10° NE visible
16 Jul -2.3 01:09:57 10° NW 01:12:45 37° N 01:12:45 37° N visible
16 Jul -1.2 22:44:05 10° NW 22:46:39 20° N 22:49:13 10° NE visible
17 Jul -2.0 00:21:05 10° NW 00:24:05 29° NNE 00:25:11 24° NE visible
17 Jul -0.9 01:57:41 10° WNW 01:58:02 12° WNW 01:58:02 12° WNW visible
17 Jul -1.6 23:32:11 10° NW 23:34:59 24° NNE 23:37:41 11° ENE visible
18 Jul -2.0 01:08:42 10° WNW 01:10:31 29° NW 01:10:31 29° NW visible
18 Jul -1.4 22:43:11 10° NW 22:45:50 21° N 22:48:29 10° ENE visible
19 Jul -3.2 00:19:47 10° NW 00:23:03 52° NNE 00:23:03 52° NNE visible
19 Jul -2.5 23:30:52 10° NW 23:34:01 36° NNE 23:35:35 23° ENE visible
20 Jul -1.2 01:07:35 10° WNW 01:08:26 16° WNW 01:08:26 16° WNW visible
20 Jul -2.0 22:41:56 10° NW 22:44:53 28° NNE 22:47:50 10° ENE visible
21 Jul -2.9 00:18:29 10° WNW 00:21:00 46° W 00:21:00 46° W visible
21 Jul -3.7 23:29:28 10° NW 23:32:49 75° NNE 23:33:37 48° ESE visible
22 Jul -3.1 22:40:29 10° NW 22:43:45 48° NNE 22:46:15 15° E visible
